{"data":{"norad_id":65453,"intl_designator":"2025-194V","name":"STARLINK-34988","alt_names":[],"object_type":"PAYLOAD","status":"ACTIVE","operator":null,"country":"US","launch_date":"2025-09-03","launch_site_code":"AFWTR","launch_vehicle":null,"mission":null,"orbit_class":"UNKNOWN","rcs_meters":null,"size_class":null,"mass_kg":null,"dimensions":null,"purposes":["comms"],"wikipedia_slug":null,"has_3d_model":false,"image_url":null,"decayed_at":null,"tle_current":{"epoch":"2026-09-20T22:00:03.000096Z","epoch_age_seconds":78928,"freshness":"FRESH","line1":"1 65453U 25194V   26263.91670139  .00065722  00000+0  43386-2 0  9996","line2":"2 65453  97.2852 113.8890 0001777  75.8295 234.5267 15.07149699  5797","mean_motion":15.07149699,"eccentricity":0.0001777,"inclination_deg":97.2852,"raan_deg":113.889,"arg_perigee_deg":75.8295,"mean_anomaly_deg":234.5267,"bstar":0.0043386,"rev_number":579,"period_min":95.544589960469,"perigee_km":543.68456468813,"apogee_km":546.14501729465,"semimajor_km":6923.0517909914,"source":"CELESTRAK","updated_at":"2026-09-21T09:00:35.612503Z"}}}